Location: Limerick
(52.6650°N, 8.6230°W)
Time: 17:06:40
(UTC+00:00)

N. Korean satellite - Visible Passes

Search period start: 20 November 2017 00:00
Search period end: 30 November 2017 00:00
Orbit: 460 x 514 km, 97.2° (Epoch: 20 November)

Date Brightness Start Highest point End Pass type
(mag) Time Alt. Az. Time Alt. Az. Time Alt. Az.
20 Nov 10.4 06:07:27 10° ENE 06:08:05 10° E 06:08:44 10° E visible
20 Nov 6.4 18:20:16 10° SSE 18:23:47 86° ENE 18:27:24 10° NNW visible
21 Nov 7.7 07:15:01 10° NNE 07:18:40 51° E 07:22:20 10° S visible
21 Nov 6.7 17:56:57 10° SE 18:00:20 47° ENE 18:03:50 10° N visible
21 Nov 9.5 19:31:46 10° SW 19:34:09 17° W 19:36:34 10° NW visible
22 Nov 8.9 06:51:46 10° NNE 06:55:06 29° E 06:58:25 10° SSE visible
22 Nov 7.5 17:33:56 10° SE 17:36:59 27° ENE 17:40:06 10° N visible
22 Nov 8.6 19:07:21 10° SSW 19:10:28 29° W 19:13:40 10° NNW visible
23 Nov 9.8 06:28:50 10° NE 06:31:26 18° E 06:34:02 10° SE visible
23 Nov 8.1 17:11:17 10° ESE 17:13:42 17° ENE 17:16:09 10° NNE visible
23 Nov 7.4 18:43:24 10° S 18:46:53 51° W 18:50:26 10° NNW visible
24 Nov 10.3 06:06:58 10° ENE 06:07:41 10° E 06:08:25 10° E visible
24 Nov 6.4 18:19:47 10° SSE 18:23:21 86° ENE 18:27:01 10° NNW visible
25 Nov 7.7 07:14:35 10° NNE 07:18:16 51° E 07:21:57 10° S visible
25 Nov 6.8 17:56:28 10° SE 17:59:54 47° ENE 18:03:26 10° N visible
25 Nov 9.5 19:31:16 10° SW 19:33:42 17° W 19:36:11 10° NW visible
26 Nov 8.9 06:51:20 10° NNE 06:54:40 29° E 06:58:00 10° SSE visible
26 Nov 7.5 17:33:26 10° SE 17:36:32 28° ENE 17:39:41 10° N visible
26 Nov 8.6 19:06:51 10° SSW 19:10:01 29° W 19:13:15 10° NNW visible
27 Nov 9.8 06:28:23 10° NE 06:31:00 18° E 06:33:36 10° SE visible
27 Nov 8.1 17:10:46 10° ESE 17:13:14 18° ENE 17:15:44 10° NNE visible
27 Nov 7.4 18:42:54 10° S 18:46:24 52° W 18:50:00 10° NNW visible
28 Nov 10.3 06:06:29 10° ENE 06:07:14 10° E 06:07:59 10° E visible
28 Nov 6.5 18:19:16 10° SSE 18:22:52 86° ENE 18:26:34 10° NNW visible
28 Nov 10.2 19:56:29 10° W 19:57:00 10° W 19:57:29 10° WNW visible
29 Nov 7.7 07:14:06 10° NNE 07:17:48 51° E 07:21:29 10° S visible
29 Nov 6.8 17:55:57 10° SE 17:59:25 47° ENE 18:02:59 10° N visible
29 Nov 9.5 19:30:43 10° SW 19:33:12 18° W 19:35:45 10° NW visible
